Time,TemperatureF,DewpointF,PressureIn,WindDirection,WindDirectionDegrees,WindSpeedMPH,WindSpeedGustMPH,Humidity,HourlyPrecipIn,Conditions,Clouds,dailyrainin,SoftwareType,DateUTC
2013-04-10 00:00:00,15.0,15.0,30.34,NW,315,25.0,29.0,100,0.00,,,0.00,VWS V14.01,2013-04-10 06:00:00,
2013-04-10 00:01:00,15.0,15.0,30.34,NW,315,23.0,25.0,100,0.00,,,0.00,VWS V14.01,2013-04-10 06:01:00,
2013-04-10 00:05:00,16.0,15.8,30.34,NW,315,28.0,31.0,99,0.00,,,0.00,VWS V14.01,2013-04-10 06:05:00,
2013-04-10 00:06:00,16.0,15.8,30.34,NW,315,22.0,31.0,99,0.00,,,0.00,VWS V14.01,2013-04-10 06:06:00,
2013-04-10 00:10:00,16.0,15.8,30.34,NW,315,29.0,31.0,99,0.00,,,0.00,VWS V14.01,2013-04-10 06:10:00,
2013-04-10 00:11:00,16.0,15.8,30.31,NW,315,27.0,29.0,99,0.00,,,0.00,VWS V14.01,2013-04-10 06:11:00,
2013-04-10 00:15:00,16.0,15.8,30.31,NW,315,27.0,31.0,99,0.00,,,0.00,VWS V14.01,2013-04-10 06:15:00,
2013-04-10 00:16:00,16.0,15.5,30.31,NW,315,24.0,28.0,98,0.00,,,0.00,VWS V14.01,2013-04-10 06:16:00,
2013-04-10 00:20:00,16.0,15.5,30.31,NW,315,20.0,31.0,98,0.00,,,0.00,VWS V14.01,2013-04-10 06:20:00,
2013-04-10 00:21:00,16.0,15.5,30.32,NW,315,24.0,28.0,98,0.00,,,0.00,VWS V14.01,2013-04-10 06:21:00,
2013-04-10 00:25:00,16.0,15.5,30.32,NW,315,22.0,28.0,98,0.00,,,0.00,VWS V14.01,2013-04-10 06:25:00,
2013-04-10 00:26:00,16.0,15.5,30.32,NW,315,23.0,26.0,98,0.00,,,0.00,VWS V14.01,2013-04-10 06:26:00,
2013-04-10 00:30:00,16.0,15.5,30.32,NW,315,21.0,29.0,98,0.00,,,0.00,VWS V14.01,2013-04-10 06:30:00,
2013-04-10 00:31:00,16.0,15.5,30.33,NW,315,23.0,27.0,98,0.00,,,0.00,VWS V14.01,2013-04-10 06:31:00,
2013-04-10 00:35:00,16.0,15.5,30.33,NW,315,20.0,27.0,98,0.00,,,0.00,VWS V14.01,2013-04-10 06:35:00,
2013-04-10 00:36:00,16.0,15.5,30.33,NW,315,23.0,25.0,98,0.00,,,0.00,VWS V14.01,2013-04-10 06:36:00,
2013-04-10 00:40:00,16.0,15.5,30.33,NW,315,22.0,26.0,98,0.00,,,0.00,VWS V14.01,2013-04-10 06:40:00,
2013-04-10 00:41:00,16.0,15.5,30.34,NW,315,23.0,27.0,98,0.00,,,0.00,VWS V14.01,2013-04-10 06:41:00,
2013-04-10 00:45:00,16.0,15.5,30.34,NW,315,19.0,28.0,98,0.00,,,0.00,VWS V14.01,2013-04-10 06:45:00,
2013-04-10 00:46:00,16.0,15.5,30.34,NW,315,22.0,25.0,98,0.00,,,0.00,VWS V14.01,2013-04-10 06:46:00,
2013-04-10 00:50:00,16.0,15.5,30.34,NW,315,22.0,25.0,98,0.00,,,0.00,VWS V14.01,2013-04-10 06:50:00,
2013-04-10 00:51:00,16.0,15.5,30.35,NW,315,19.0,23.0,98,0.00,,,0.00,VWS V14.01,2013-04-10 06:51:00,
2013-04-10 00:55:00,16.0,15.5,30.35,NW,315,21.0,26.0,98,0.00,,,0.00,VWS V14.01,2013-04-10 06:55:00,
2013-04-10 00:56:00,16.0,15.5,30.35,NW,315,19.0,23.0,98,0.00,,,0.00,VWS V14.01,2013-04-10 06:56:00,
2013-04-10 01:00:00,16.0,15.5,30.35,NW,315,20.0,23.0,98,0.00,,,0.00,VWS V14.01,2013-04-10 07:00:00,
2013-04-10 01:02:00,16.0,15.5,30.35,NW,315,16.0,23.0,98,0.00,,,0.00,VWS V14.01,2013-04-10 07:02:00,
2013-04-10 01:05:00,16.0,15.5,30.35,NW,315,12.0,25.0,98,0.00,,,0.00,VWS V14.01,2013-04-10 07:05:00,
2013-04-10 01:07:00,16.0,15.5,30.35,NW,315,20.0,22.0,98,0.00,,,0.00,VWS V14.01,2013-04-10 07:07:00,
2013-04-10 01:10:00,16.0,15.5,30.35,NW,315,20.0,24.0,98,0.00,,,0.00,VWS V14.01,2013-04-10 07:10:00,
2013-04-10 01:12:00,16.0,15.3,30.35,NW,315,18.0,25.0,97,0.00,,,0.00,VWS V14.01,2013-04-10 07:12:00,
2013-04-10 01:15:00,16.0,15.5,30.35,NW,315,22.0,25.0,98,0.00,,,0.00,VWS V14.01,2013-04-10 07:15:00,
2013-04-10 01:17:00,16.0,15.5,30.35,NW,315,26.0,26.0,98,0.00,,,0.00,VWS V14.01,2013-04-10 07:17:00,
2013-04-10 01:20:00,16.0,15.5,30.35,NW,315,22.0,26.0,98,0.00,,,0.00,VWS V14.01,2013-04-10 07:20:00,
2013-04-10 01:22:00,16.0,15.5,30.35,NW,315,22.0,23.0,98,0.00,,,0.00,VWS V14.01,2013-04-10 07:22:00,
2013-04-10 01:25:00,16.0,15.5,30.35,NW,315,20.0,23.0,98,0.00,,,0.00,VWS V14.01,2013-04-10 07:25:00,
2013-04-10 01:27:00,16.0,15.5,30.35,NW,315,16.0,24.0,98,0.00,,,0.00,VWS V14.01,2013-04-10 07:27:00,
2013-04-10 01:30:00,16.0,15.5,30.35,NW,315,16.0,24.0,98,0.00,,,0.00,VWS V14.01,2013-04-10 07:30:00,
2013-04-10 01:32:00,16.0,15.5,30.35,NW,315,17.0,24.0,98,0.00,,,0.00,VWS V14.01,2013-04-10 07:32:00,
2013-04-10 01:35:00,16.0,15.3,30.35,NW,315,26.0,26.0,97,0.00,,,0.00,VWS V14.01,2013-04-10 07:35:00,
2013-04-10 01:37:00,16.0,15.3,30.35,NW,315,21.0,26.0,97,0.00,,,0.00,VWS V14.01,2013-04-10 07:37:00,
2013-04-10 01:40:00,16.0,15.3,30.35,NW,315,18.0,26.0,97,0.00,,,0.00,VWS V14.01,2013-04-10 07:40:00,
2013-04-10 01:42:00,16.0,15.3,30.35,NW,315,24.0,25.0,97,0.00,,,0.00,VWS V14.01,2013-04-10 07:42:00,
2013-04-10 01:45:00,16.0,15.3,30.35,NW,315,21.0,25.0,97,0.00,,,0.00,VWS V14.01,2013-04-10 07:45:00,
2013-04-10 01:47:00,16.0,15.3,30.35,NW,315,19.0,25.0,97,0.00,,,0.00,VWS V14.01,2013-04-10 07:47:00,
2013-04-10 01:50:00,16.0,15.3,30.35,NW,315,17.0,25.0,97,0.00,,,0.00,VWS V14.01,2013-04-10 07:50:00,
2013-04-10 01:52:00,16.0,15.3,30.35,NW,315,15.0,23.0,97,0.00,,,0.00,VWS V14.01,2013-04-10 07:52:00,
2013-04-10 01:55:00,16.0,15.3,30.35,NW,315,22.0,23.0,97,0.00,,,0.00,VWS V14.01,2013-04-10 07:55:00,
2013-04-10 01:57:00,16.0,15.3,30.35,NW,315,18.0,23.0,97,0.00,,,0.00,VWS V14.01,2013-04-10 07:57:00,
2013-04-10 02:00:00,16.0,15.3,30.35,NW,315,20.0,23.0,97,0.00,,,0.00,VWS V14.01,2013-04-10 08:00:00,
2013-04-10 02:02:00,16.0,15.3,30.34,NW,315,17.0,24.0,97,0.00,,,0.00,VWS V14.01,2013-04-10 08:02:00,
2013-04-10 02:05:00,16.0,15.3,30.34,NW,315,20.0,24.0,97,0.00,,,0.00,VWS V14.01,2013-04-10 08:05:00,
2013-04-10 02:07:00,16.0,15.3,30.34,NW,315,17.0,24.0,97,0.00,,,0.00,VWS V14.01,2013-04-10 08:07:00,
2013-04-10 02:10:00,16.0,15.3,30.34,NW,315,18.0,24.0,97,0.00,,,0.00,VWS V14.01,2013-04-10 08:10:00,
2013-04-10 02:12:00,16.0,15.1,30.33,NW,315,22.0,23.0,96,0.00,,,0.00,VWS V14.01,2013-04-10 08:12:00,
2013-04-10 02:15:00,16.0,15.1,30.33,NW,315,23.0,26.0,96,0.00,,,0.00,VWS V14.01,2013-04-10 08:15:00,
2013-04-10 02:17:00,16.0,15.1,30.33,NW,315,19.0,25.0,96,0.00,,,0.00,VWS V14.01,2013-04-10 08:17:00,
2013-04-10 02:20:00,16.0,15.1,30.33,NW,315,21.0,25.0,96,0.00,,,0.00,VWS V14.01,2013-04-10 08:20:00,
2013-04-10 02:22:00,16.0,15.1,30.32,NNW,337,20.0,26.0,96,0.00,,,0.00,VWS V14.01,2013-04-10 08:22:00,
2013-04-10 02:25:00,16.0,15.1,30.32,NW,315,19.0,26.0,96,0.00,,,0.00,VWS V14.01,2013-04-10 08:25:00,
2013-04-10 02:27:00,16.0,15.1,30.32,NW,315,14.0,23.0,96,0.00,,,0.00,VWS V14.01,2013-04-10 08:27:00,
2013-04-10 02:30:00,16.0,15.1,30.32,NW,315,20.0,23.0,96,0.00,,,0.00,VWS V14.01,2013-04-10 08:30:00,
2013-04-10 02:32:00,17.0,15.8,30.31,NW,315,21.0,23.0,95,0.00,,,0.00,VWS V14.01,2013-04-10 08:32:00,
2013-04-10 02:35:00,17.0,15.8,30.31,NW,315,17.0,23.0,95,0.00,,,0.00,VWS V14.01,2013-04-10 08:35:00,
2013-04-10 02:37:00,17.0,15.8,30.31,NW,315,22.0,23.0,95,0.00,,,0.00,VWS V14.01,2013-04-10 08:37:00,
2013-04-10 02:40:00,17.0,15.8,30.31,NW,315,19.0,23.0,95,0.00,,,0.00,VWS V14.01,2013-04-10 08:40:00,
2013-04-10 02:42:00,17.0,15.8,30.31,NW,315,20.0,26.0,95,0.00,,,0.00,VWS V14.01,2013-04-10 08:42:00,
2013-04-10 02:45:00,17.0,15.8,30.31,NW,315,17.0,26.0,95,0.00,,,0.00,VWS V14.01,2013-04-10 08:45:00,
2013-04-10 02:47:00,17.0,15.8,30.31,NW,315,25.0,25.0,95,0.00,,,0.00,VWS V14.01,2013-04-10 08:47:00,
2013-04-10 02:50:00,17.0,15.8,30.31,NW,315,19.0,25.0,95,0.00,,,0.00,VWS V14.01,2013-04-10 08:50:00,
2013-04-10 02:53:00,17.0,15.8,30.30,NW,315,16.0,25.0,95,0.00,,,0.00,VWS V14.01,2013-04-10 08:53:00,
2013-04-10 02:55:00,17.0,15.8,30.30,NW,315,19.0,25.0,95,0.00,,,0.00,VWS V14.01,2013-04-10 08:55:00,
2013-04-10 03:00:00,17.0,15.8,30.30,NW,315,16.0,22.0,95,0.00,,,0.00,VWS V14.01,2013-04-10 09:00:00,
2013-04-10 03:05:00,17.0,15.8,30.31,NW,315,19.0,21.0,95,0.00,,,0.00,VWS V14.01,2013-04-10 09:05:00,
2013-04-10 03:10:00,17.0,15.8,30.31,NW,315,16.0,20.0,95,0.00,,,0.00,VWS V14.01,2013-04-10 09:10:00,
2013-04-10 03:15:00,17.0,15.8,30.31,NW,315,15.0,20.0,95,0.00,,,0.00,VWS V14.01,2013-04-10 09:15:00,
2013-04-10 03:20:00,17.0,15.8,30.31,NW,315,16.0,19.0,95,0.00,,,0.00,VWS V14.01,2013-04-10 09:20:00,
2013-04-10 03:25:00,17.0,15.8,30.31,NW,315,20.0,23.0,95,0.00,,,0.00,VWS V14.01,2013-04-10 09:25:00,
2013-04-10 03:30:00,17.0,15.8,30.31,NW,315,14.0,22.0,95,0.00,,,0.00,VWS V14.01,2013-04-10 09:30:00,
2013-04-10 03:35:00,17.0,15.8,30.31,NW,315,19.0,22.0,95,0.00,,,0.00,VWS V14.01,2013-04-10 09:35:00,
2013-04-10 03:40:00,17.0,15.8,30.31,NW,315,16.0,22.0,95,0.00,,,0.00,VWS V14.01,2013-04-10 09:40:00,
2013-04-10 03:45:00,17.0,15.8,30.32,NW,315,13.0,21.0,95,0.00,,,0.00,VWS V14.01,2013-04-10 09:45:00,
2013-04-10 03:50:00,17.0,15.8,30.32,NW,315,15.0,19.0,95,0.00,,,0.00,VWS V14.01,2013-04-10 09:50:00,
2013-04-10 03:55:00,17.0,15.8,30.31,NW,315,17.0,19.0,95,0.00,,,0.00,VWS V14.01,2013-04-10 09:55:00,
2013-04-10 03:56:00,17.0,15.8,30.31,NW,315,15.0,19.0,95,0.00,,,0.00,VWS V14.01,2013-04-10 09:56:00,
2013-04-10 04:00:00,17.0,15.8,30.31,NW,315,16.0,19.0,95,0.00,,,0.00,VWS V14.01,2013-04-10 10:00:00,
2013-04-10 04:01:00,17.0,16.1,30.31,NW,315,15.0,18.0,96,0.00,,,0.00,VWS V14.01,2013-04-10 10:01:00,
2013-04-10 04:05:00,17.0,16.1,30.31,NW,315,15.0,18.0,96,0.00,,,0.00,VWS V14.01,2013-04-10 10:05:00,
2013-04-10 04:06:00,17.0,16.1,30.31,NW,315,13.0,17.0,96,0.00,,,0.00,VWS V14.01,2013-04-10 10:06:00,
2013-04-10 04:10:00,17.0,16.1,30.31,NW,315,13.0,17.0,96,0.00,,,0.00,VWS V14.01,2013-04-10 10:10:00,
2013-04-10 04:12:00,17.0,16.1,30.32,NW,315,11.0,17.0,96,0.00,,,0.00,VWS V14.01,2013-04-10 10:12:00,
2013-04-10 04:15:00,17.0,16.1,30.32,NW,315,15.0,18.0,96,0.00,,,0.00,VWS V14.01,2013-04-10 10:15:00,
2013-04-10 04:17:00,17.0,16.1,30.32,NW,315,13.0,17.0,96,0.00,,,0.00,VWS V14.01,2013-04-10 10:17:00,
2013-04-10 04:20:00,17.0,16.1,30.32,NW,315,16.0,20.0,96,0.00,,,0.00,VWS V14.01,2013-04-10 10:20:00,
2013-04-10 04:22:00,17.0,16.1,30.30,NW,315,17.0,19.0,96,0.00,,,0.00,VWS V14.01,2013-04-10 10:22:00,
2013-04-10 04:25:00,17.0,16.1,30.30,NW,315,14.0,22.0,96,0.00,,,0.00,VWS V14.01,2013-04-10 10:25:00,
2013-04-10 04:27:00,17.0,16.1,30.30,NW,315,18.0,19.0,96,0.00,,,0.00,VWS V14.01,2013-04-10 10:27:00,
2013-04-10 04:30:00,17.0,15.8,30.30,NW,315,16.0,21.0,95,0.00,,,0.00,VWS V14.01,2013-04-10 10:30:00,
2013-04-10 04:32:00,17.0,15.8,30.30,NW,315,20.0,20.0,95,0.00,,,0.00,VWS V14.01,2013-04-10 10:32:00,
2013-04-10 04:35:00,17.0,15.8,30.30,NW,315,15.0,21.0,95,0.00,,,0.00,VWS V14.01,2013-04-10 10:35:00,
2013-04-10 04:37:00,17.0,16.1,30.30,NW,315,21.0,21.0,96,0.00,,,0.00,VWS V14.01,2013-04-10 10:37:00,
2013-04-10 04:40:00,17.0,16.1,30.30,NW,315,22.0,23.0,96,0.00,,,0.00,VWS V14.01,2013-04-10 10:40:00,
2013-04-10 04:42:00,17.0,15.8,30.30,NW,315,20.0,25.0,95,0.00,,,0.00,VWS V14.01,2013-04-10 10:42:00,
2013-04-10 04:45:00,17.0,15.8,30.30,NW,315,18.0,25.0,95,0.00,,,0.00,VWS V14.01,2013-04-10 10:45:00,
2013-04-10 04:47:00,17.0,15.8,30.30,NW,315,19.0,26.0,95,0.00,,,0.00,VWS V14.01,2013-04-10 10:47:00,
2013-04-10 04:50:00,17.0,15.8,30.30,NNW,337,23.0,26.0,95,0.00,,,0.00,VWS V14.01,2013-04-10 10:50:00,
2013-04-10 04:52:00,17.0,16.1,30.29,NW,315,21.0,25.0,96,0.00,,,0.00,VWS V14.01,2013-04-10 10:52:00,
2013-04-10 04:55:00,17.0,16.1,30.29,NW,315,23.0,27.0,96,0.00,,,0.00,VWS V14.01,2013-04-10 10:55:00,
2013-04-10 04:57:00,17.0,15.8,30.29,NW,315,24.0,27.0,95,0.00,,,0.00,VWS V14.01,2013-04-10 10:57:00,
2013-04-10 05:00:00,17.0,15.8,30.29,NW,315,23.0,27.0,95,0.00,,,0.00,VWS V14.01,2013-04-10 11:00:00,
2013-04-10 05:02:00,17.0,15.6,30.30,NW,315,23.0,24.0,94,0.00,,,0.00,VWS V14.01,2013-04-10 11:02:00,
2013-04-10 05:05:00,17.0,15.8,30.30,NW,315,22.0,26.0,95,0.00,,,0.00,VWS V14.01,2013-04-10 11:05:00,
2013-04-10 05:07:00,17.0,15.6,30.30,NW,315,22.0,26.0,94,0.00,,,0.00,VWS V14.01,2013-04-10 11:07:00,
2013-04-10 05:10:00,17.0,15.6,30.30,NNW,337,22.0,29.0,94,0.00,,,0.00,VWS V14.01,2013-04-10 11:10:00,
2013-04-10 05:12:00,17.0,15.6,30.29,NNW,337,27.0,27.0,94,0.00,,,0.00,VWS V14.01,2013-04-10 11:12:00,
2013-04-10 05:15:00,17.0,15.6,30.29,NW,315,29.0,30.0,94,0.00,,,0.00,VWS V14.01,2013-04-10 11:15:00,
2013-04-10 05:17:00,17.0,15.8,30.29,NNW,337,20.0,29.0,95,0.00,,,0.00,VWS V14.01,2013-04-10 11:17:00,
2013-04-10 05:20:00,17.0,15.8,30.29,NNW,337,20.0,29.0,95,0.00,,,0.00,VWS V14.01,2013-04-10 11:20:00,
2013-04-10 05:22:00,17.0,15.8,30.31,NW,315,22.0,27.0,95,0.00,,,0.00,VWS V14.01,2013-04-10 11:22:00,
2013-04-10 05:25:00,17.0,15.8,30.31,NW,315,17.0,28.0,95,0.00,,,0.00,VWS V14.01,2013-04-10 11:25:00,
2013-04-10 05:27:00,17.0,15.8,30.31,NW,315,19.0,27.0,95,0.00,,,0.00,VWS V14.01,2013-04-10 11:27:00,
2013-04-10 05:30:00,17.0,15.6,30.31,NW,315,23.0,29.0,94,0.00,,,0.00,VWS V14.01,2013-04-10 11:30:00,
2013-04-10 05:32:00,17.0,15.6,30.29,NW,315,25.0,28.0,94,0.00,,,0.00,VWS V14.01,2013-04-10 11:32:00,
2013-04-10 05:35:00,17.0,15.6,30.29,NNW,337,17.0,29.0,94,0.00,,,0.00,VWS V14.01,2013-04-10 11:35:00,
2013-04-10 05:37:00,17.0,15.8,30.29,NNW,337,26.0,32.0,95,0.00,,,0.00,VWS V14.01,2013-04-10 11:37:00,
2013-04-10 05:40:00,17.0,15.8,30.29,NW,315,23.0,32.0,95,0.00,,,0.00,VWS V14.01,2013-04-10 11:40:00,
2013-04-10 05:42:00,17.0,15.8,30.30,NNW,337,27.0,30.0,95,0.00,,,0.00,VWS V14.01,2013-04-10 11:42:00,
2013-04-10 05:45:00,17.0,15.8,30.30,NNW,337,22.0,30.0,95,0.00,,,0.00,VWS V14.01,2013-04-10 11:45:00,
2013-04-10 05:47:00,17.0,15.8,30.30,NW,315,16.0,26.0,95,0.00,,,0.00,VWS V14.01,2013-04-10 11:47:00,
2013-04-10 05:50:00,17.0,15.8,30.30,NNW,337,20.0,26.0,95,0.00,,,0.00,VWS V14.01,2013-04-10 11:50:00,
2013-04-10 05:52:00,17.0,15.8,30.31,NW,315,20.0,26.0,95,0.00,,,0.00,VWS V14.01,2013-04-10 11:52:00,
2013-04-10 05:55:00,17.0,16.1,30.31,NW,315,25.0,29.0,96,0.00,,,0.00,VWS V14.01,2013-04-10 11:55:00,
2013-04-10 05:57:00,17.0,15.8,30.31,NNW,337,20.0,29.0,95,0.00,,,0.00,VWS V14.01,2013-04-10 11:57:00,
2013-04-10 06:00:00,17.0,15.8,30.31,NW,315,21.0,29.0,95,0.00,,,0.00,VWS V14.01,2013-04-10 12:00:00,
2013-04-10 06:02:00,17.0,16.1,30.31,NW,315,22.0,23.0,96,0.00,,,0.00,VWS V14.01,2013-04-10 12:02:00,
2013-04-10 06:05:00,17.0,16.1,30.31,NW,315,19.0,25.0,96,0.00,,,0.00,VWS V14.01,2013-04-10 12:05:00,
2013-04-10 06:07:00,17.0,15.8,30.31,NNW,337,24.0,28.0,95,0.00,,,0.00,VWS V14.01,2013-04-10 12:07:00,
2013-04-10 06:10:00,17.0,15.8,30.31,NNW,337,19.0,28.0,95,0.00,,,0.00,VWS V14.01,2013-04-10 12:10:00,
2013-04-10 06:12:00,17.0,15.8,30.31,NNW,337,18.0,23.0,95,0.00,,,0.00,VWS V14.01,2013-04-10 12:12:00,
2013-04-10 06:15:00,17.0,15.8,30.31,NNW,337,17.0,26.0,95,0.00,,,0.00,VWS V14.01,2013-04-10 12:15:00,
2013-04-10 06:17:00,17.0,15.8,30.31,NW,315,18.0,23.0,95,0.00,,,0.00,VWS V14.01,2013-04-10 12:17:00,
2013-04-10 06:20:00,17.0,15.8,30.31,NNW,337,21.0,27.0,95,0.00,,,0.00,VWS V14.01,2013-04-10 12:20:00,
2013-04-10 06:22:00,17.0,15.8,30.31,NW,315,17.0,25.0,95,0.00,,,0.00,VWS V14.01,2013-04-10 12:22:00,
2013-04-10 06:25:00,17.0,15.8,30.31,NW,315,17.0,25.0,95,0.00,,,0.00,VWS V14.01,2013-04-10 12:25:00,
2013-04-10 06:27:00,17.0,15.8,30.31,NW,315,18.0,22.0,95,0.00,,,0.00,VWS V14.01,2013-04-10 12:27:00,
2013-04-10 06:30:00,17.0,15.8,30.31,NW,315,15.0,22.0,95,0.00,,,0.00,VWS V14.01,2013-04-10 12:30:00,
2013-04-10 06:32:00,17.0,15.8,30.31,NNW,337,17.0,20.0,95,0.00,,,0.00,VWS V14.01,2013-04-10 12:32:00,
2013-04-10 06:35:00,17.0,15.8,30.31,NNW,337,17.0,20.0,95,0.00,,,0.00,VWS V14.01,2013-04-10 12:35:00,
2013-04-10 06:37:00,17.0,15.8,30.31,NW,315,17.0,21.0,95,0.00,,,0.00,VWS V14.01,2013-04-10 12:37:00,
2013-04-10 06:40:00,17.0,15.8,30.31,NW,315,13.0,21.0,95,0.00,,,0.00,VWS V14.01,2013-04-10 12:40:00,
2013-04-10 06:42:00,17.0,15.8,30.31,NW,315,19.0,19.0,95,0.00,,,0.00,VWS V14.01,2013-04-10 12:42:00,
2013-04-10 06:45:00,17.0,15.8,30.31,NW,315,15.0,19.0,95,0.00,,,0.00,VWS V14.01,2013-04-10 12:45:00,
2013-04-10 06:47:00,17.0,15.8,30.31,NW,315,17.0,19.0,95,0.00,,,0.00,VWS V14.01,2013-04-10 12:47:00,
2013-04-10 06:50:00,17.0,15.8,30.31,NW,315,14.0,19.0,95,0.00,,,0.00,VWS V14.01,2013-04-10 12:50:00,
2013-04-10 06:52:00,17.0,15.8,30.31,NW,315,15.0,18.0,95,0.00,,,0.00,VWS V14.01,2013-04-10 12:52:00,
2013-04-10 06:55:00,17.0,15.8,30.31,NW,315,14.0,19.0,95,0.00,,,0.00,VWS V14.01,2013-04-10 12:55:00,
2013-04-10 06:57:00,17.0,15.6,30.31,NW,315,13.0,18.0,94,0.00,,,0.00,VWS V14.01,2013-04-10 12:57:00,
2013-04-10 07:00:00,17.0,15.6,30.31,NW,315,13.0,19.0,94,0.00,,,0.00,VWS V14.01,2013-04-10 13:00:00,
2013-04-10 07:02:00,17.0,15.6,30.31,NW,315,17.0,20.0,94,0.00,,,0.00,VWS V14.01,2013-04-10 13:02:00,
2013-04-10 07:05:00,17.0,15.3,30.31,NW,315,16.0,20.0,93,0.00,,,0.00,VWS V14.01,2013-04-10 13:05:00,
2013-04-10 07:07:00,17.0,15.3,30.31,NW,315,18.0,23.0,93,0.00,,,0.00,VWS V14.01,2013-04-10 13:07:00,
2013-04-10 07:10:00,17.0,15.3,30.31,NW,315,15.0,23.0,93,0.00,,,0.00,VWS V14.01,2013-04-10 13:10:00,
2013-04-10 07:13:00,18.0,16.1,30.29,NW,315,19.0,24.0,92,0.00,,,0.00,VWS V14.01,2013-04-10 13:13:00,
2013-04-10 07:15:00,18.0,15.8,30.29,NNW,337,20.0,24.0,91,0.00,,,0.00,VWS V14.01,2013-04-10 13:15:00,
2013-04-10 07:18:00,18.0,15.8,30.29,NW,315,15.0,22.0,91,0.00,,,0.00,VWS V14.01,2013-04-10 13:18:00,
2013-04-10 07:20:00,18.0,15.8,30.29,NNW,337,21.0,22.0,91,0.00,,,0.00,VWS V14.01,2013-04-10 13:20:00,
2013-04-10 07:23:00,18.0,15.8,30.30,NW,315,17.0,23.0,91,0.00,,,0.00,VWS V14.01,2013-04-10 13:23:00,
2013-04-10 07:25:00,18.0,15.8,30.30,NW,315,20.0,23.0,91,0.00,,,0.00,VWS V14.01,2013-04-10 13:25:00,
2013-04-10 07:28:00,18.0,15.8,30.30,NNW,337,17.0,22.0,91,0.00,,,0.00,VWS V14.01,2013-04-10 13:28:00,
2013-04-10 07:30:00,18.0,15.8,30.30,NW,315,17.0,22.0,91,0.00,,,0.00,VWS V14.01,2013-04-10 13:30:00,
2013-04-10 07:33:00,18.0,15.6,30.29,NNW,337,19.0,23.0,90,0.00,,,0.00,VWS V14.01,2013-04-10 13:33:00,
2013-04-10 07:35:00,18.0,15.6,30.29,NNW,337,19.0,23.0,90,0.00,,,0.00,VWS V14.01,2013-04-10 13:35:00,
2013-04-10 07:38:00,18.0,15.6,30.29,NNW,337,21.0,27.0,90,0.00,,,0.00,VWS V14.01,2013-04-10 13:38:00,
2013-04-10 07:40:00,18.0,15.3,30.29,NNW,337,22.0,27.0,89,0.00,,,0.00,VWS V14.01,2013-04-10 13:40:00,
2013-04-10 07:43:00,18.0,15.3,30.29,NNW,337,25.0,26.0,89,0.00,,,0.00,VWS V14.01,2013-04-10 13:43:00,
2013-04-10 07:45:00,18.0,15.3,30.29,NNW,337,25.0,26.0,89,0.00,,,0.00,VWS V14.01,2013-04-10 13:45:00,
2013-04-10 07:48:00,18.0,15.3,30.29,NW,315,26.0,28.0,89,0.00,,,0.00,VWS V14.01,2013-04-10 13:48:00,
2013-04-10 07:50:00,18.0,15.3,30.29,NNW,337,28.0,28.0,89,0.00,,,0.00,VWS V14.01,2013-04-10 13:50:00,
2013-04-10 07:53:00,18.0,15.3,30.28,NNW,337,23.0,31.0,89,0.00,,,0.00,VWS V14.01,2013-04-10 13:53:00,
2013-04-10 07:55:00,18.0,15.3,30.28,NW,315,23.0,32.0,89,0.00,,,0.00,VWS V14.01,2013-04-10 13:55:00,
2013-04-10 07:58:00,18.0,15.3,30.28,NW,315,26.0,30.0,89,0.00,,,0.00,VWS V14.01,2013-04-10 13:58:00,
2013-04-10 08:00:00,18.0,15.3,30.28,NNW,337,27.0,30.0,89,0.00,,,0.00,VWS V14.01,2013-04-10 14:00:00,
2013-04-10 08:03:00,18.0,15.3,30.29,NNW,337,28.0,31.0,89,0.00,,,0.00,VWS V14.01,2013-04-10 14:03:00,
2013-04-10 08:05:00,18.0,15.3,30.29,NW,315,32.0,32.0,89,0.00,,,0.00,VWS V14.01,2013-04-10 14:05:00,
2013-04-10 08:08:00,18.0,15.1,30.29,NNW,337,26.0,32.0,88,0.00,,,0.00,VWS V14.01,2013-04-10 14:08:00,
2013-04-10 08:10:00,18.0,15.1,30.29,NW,315,25.0,32.0,88,0.00,,,0.00,VWS V14.01,2013-04-10 14:10:00,
2013-04-10 08:13:00,18.0,14.8,30.29,NW,315,28.0,29.0,87,0.00,,,0.00,VWS V14.01,2013-04-10 14:13:00,
2013-04-10 08:15:00,18.0,14.8,30.29,NW,315,25.0,30.0,87,0.00,,,0.00,VWS V14.01,2013-04-10 14:15:00,
2013-04-10 08:18:00,18.0,14.8,30.29,NW,315,30.0,31.0,87,0.00,,,0.00,VWS V14.01,2013-04-10 14:18:00,
2013-04-10 08:20:00,19.0,15.5,30.29,NW,315,24.0,31.0,86,0.00,,,0.00,VWS V14.01,2013-04-10 14:20:00,
2013-04-10 08:23:00,19.0,15.5,30.28,NNW,337,30.0,32.0,86,0.00,,,0.00,VWS V14.01,2013-04-10 14:23:00,
2013-04-10 08:25:00,19.0,15.5,30.28,NW,315,27.0,32.0,86,0.00,,,0.00,VWS V14.01,2013-04-10 14:25:00,
2013-04-10 08:28:00,19.0,15.8,30.28,NNW,337,28.0,33.0,87,0.00,,,0.00,VWS V14.01,2013-04-10 14:28:00,
2013-04-10 08:30:00,19.0,15.5,30.28,NNW,337,29.0,33.0,86,0.00,,,0.00,VWS V14.01,2013-04-10 14:30:00,
2013-04-10 08:33:00,19.0,15.5,30.28,NW,315,25.0,34.0,86,0.00,,,0.00,VWS V14.01,2013-04-10 14:33:00,
2013-04-10 08:35:00,19.0,15.5,30.28,NNW,337,23.0,34.0,86,0.00,,,0.00,VWS V14.01,2013-04-10 14:35:00,
2013-04-10 08:38:00,19.0,15.5,30.28,NNW,337,22.0,31.0,86,0.00,,,0.00,VWS V14.01,2013-04-10 14:38:00,
2013-04-10 08:40:00,19.0,15.0,30.28,NNW,337,26.0,31.0,84,0.00,,,0.00,VWS V14.01,2013-04-10 14:40:00,
2013-04-10 08:43:00,19.0,15.0,30.29,NNW,337,27.0,33.0,84,0.00,,,0.00,VWS V14.01,2013-04-10 14:43:00,
2013-04-10 08:45:00,19.0,15.0,30.29,NNW,337,24.0,34.0,84,0.00,,,0.00,VWS V14.01,2013-04-10 14:45:00,
2013-04-10 08:48:00,19.0,14.7,30.29,NNW,337,25.0,29.0,83,0.00,,,0.00,VWS V14.01,2013-04-10 14:48:00,
2013-04-10 08:50:00,19.0,14.1,30.29,NNW,337,25.0,31.0,81,0.00,,,0.00,VWS V14.01,2013-04-10 14:50:00,
2013-04-10 08:53:00,19.0,13.9,30.29,NNW,337,28.0,35.0,80,0.00,,,0.00,VWS V14.01,2013-04-10 14:53:00,
2013-04-10 08:55:00,19.0,13.9,30.29,NNW,337,26.0,35.0,80,0.00,,,0.00,VWS V14.01,2013-04-10 14:55:00,
2013-04-10 08:58:00,19.0,13.9,30.29,NNW,337,24.0,33.0,80,0.00,,,0.00,VWS V14.01,2013-04-10 14:58:00,
2013-04-10 09:00:00,19.0,13.6,30.29,NNW,337,24.0,33.0,79,0.00,,,0.00,VWS V14.01,2013-04-10 15:00:00,
2013-04-10 09:03:00,19.0,13.3,30.28,NNW,337,22.0,32.0,78,0.00,,,0.00,VWS V14.01,2013-04-10 15:03:00,
2013-04-10 09:05:00,19.0,13.3,30.28,NNW,337,26.0,32.0,78,0.00,,,0.00,VWS V14.01,2013-04-10 15:05:00,
2013-04-10 09:08:00,19.0,13.3,30.28,NNW,337,26.0,31.0,78,0.00,,,0.00,VWS V14.01,2013-04-10 15:08:00,
2013-04-10 09:10:00,19.0,12.7,30.28,NNW,337,25.0,31.0,76,0.00,,,0.00,VWS V14.01,2013-04-10 15:10:00,
2013-04-10 09:13:00,19.0,12.4,30.29,NNW,337,31.0,31.0,75,0.00,,,0.00,VWS V14.01,2013-04-10 15:13:00,
2013-04-10 09:15:00,19.0,12.4,30.29,NNW,337,22.0,31.0,75,0.00,,,0.00,VWS V14.01,2013-04-10 15:15:00,
2013-04-10 09:18:00,19.0,11.8,30.29,NNW,337,25.0,28.0,73,0.00,,,0.00,VWS V14.01,2013-04-10 15:18:00,
2013-04-10 09:20:00,19.0,11.5,30.29,NNW,337,26.0,28.0,72,0.00,,,0.00,VWS V14.01,2013-04-10 15:20:00,
2013-04-10 09:23:00,19.0,10.8,30.29,NNW,337,22.0,26.0,70,0.00,,,0.00,VWS V14.01,2013-04-10 15:23:00,
2013-04-10 09:25:00,19.0,10.8,30.29,NNW,337,27.0,27.0,70,0.00,,,0.00,VWS V14.01,2013-04-10 15:25:00,
2013-04-10 09:28:00,19.0,10.8,30.29,NNW,337,18.0,27.0,70,0.00,,,0.00,VWS V14.01,2013-04-10 15:28:00,
2013-04-10 09:30:00,19.0,10.2,30.29,NNW,337,23.0,27.0,68,0.00,,,0.00,VWS V14.01,2013-04-10 15:30:00,
2013-04-10 09:33:00,19.0,10.2,30.28,NNW,337,23.0,28.0,68,0.00,,,0.00,VWS V14.01,2013-04-10 15:33:00,
2013-04-10 09:35:00,19.0,10.2,30.28,NNW,337,24.0,30.0,68,0.00,,,0.00,VWS V14.01,2013-04-10 15:35:00,
2013-04-10 09:38:00,19.0,9.2,30.28,NNW,337,24.0,28.0,65,0.00,,,0.00,VWS V14.01,2013-04-10 15:38:00,
2013-04-10 09:40:00,19.0,9.2,30.28,NNW,337,22.0,28.0,65,0.00,,,0.00,VWS V14.01,2013-04-10 15:40:00,
2013-04-10 09:43:00,19.0,9.2,30.27,NNW,337,22.0,30.0,65,0.00,,,0.00,VWS V14.01,2013-04-10 15:43:00,
2013-04-10 09:45:00,19.0,9.5,30.27,NNW,337,27.0,30.0,66,0.00,,,0.00,VWS V14.01,2013-04-10 15:45:00,
2013-04-10 09:48:00,19.0,9.5,30.27,NNW,337,25.0,29.0,66,0.00,,,0.00,VWS V14.01,2013-04-10 15:48:00,
2013-04-10 09:50:00,19.0,8.9,30.27,NNW,337,22.0,31.0,64,0.00,,,0.00,VWS V14.01,2013-04-10 15:50:00,
2013-04-10 09:53:00,19.0,7.8,30.28,NNW,337,23.0,28.0,61,0.00,,,0.00,VWS V14.01,2013-04-10 15:53:00,
2013-04-10 09:55:00,19.0,8.5,30.28,NNW,337,29.0,31.0,63,0.00,,,0.00,VWS V14.01,2013-04-10 15:55:00,
2013-04-10 09:58:00,19.0,7.4,30.28,NW,315,27.0,30.0,60,0.00,,,0.00,VWS V14.01,2013-04-10 15:58:00,
2013-04-10 10:00:00,19.0,7.4,30.28,NNW,337,31.0,32.0,60,0.00,,,0.00,VWS V14.01,2013-04-10 16:00:00,
2013-04-10 10:03:00,19.0,6.3,30.26,NNW,337,26.0,31.0,57,0.00,,,0.00,VWS V14.01,2013-04-10 16:03:00,
2013-04-10 10:05:00,19.0,6.3,30.26,NNW,337,27.0,31.0,57,0.00,,,0.00,VWS V14.01,2013-04-10 16:05:00,
2013-04-10 10:08:00,20.0,3.5,30.26,NNW,337,23.0,30.0,48,0.00,,,0.00,VWS V14.01,2013-04-10 16:08:00,
2013-04-10 10:10:00,20.0,4.4,30.26,North,360,22.0,30.0,50,0.00,,,0.00,VWS V14.01,2013-04-10 16:10:00,
2013-04-10 10:13:00,20.0,3.0,30.28,NNW,337,24.0,28.0,47,0.00,,,0.00,VWS V14.01,2013-04-10 16:13:00,
2013-04-10 10:15:00,20.0,3.5,30.28,NNW,337,25.0,28.0,48,0.00,,,0.00,VWS V14.01,2013-04-10 16:15:00,
2013-04-10 10:18:00,20.0,2.6,30.28,NNW,337,23.0,31.0,46,0.00,,,0.00,VWS V14.01,2013-04-10 16:18:00,
2013-04-10 10:20:00,20.0,1.6,30.28,NNW,337,26.0,31.0,44,0.00,,,0.00,VWS V14.01,2013-04-10 16:20:00,
2013-04-10 10:23:00,20.0,2.1,30.28,NNW,337,25.0,31.0,45,0.00,,,0.00,VWS V14.01,2013-04-10 16:23:00,
2013-04-10 10:25:00,20.0,2.1,30.28,NNW,337,25.0,31.0,45,0.00,,,0.00,VWS V14.01,2013-04-10 16:25:00,
2013-04-10 10:28:00,20.0,1.1,30.28,NNW,337,26.0,31.0,43,0.00,,,0.00,VWS V14.01,2013-04-10 16:28:00,
2013-04-10 10:30:00,20.0,0.1,30.28,NNW,337,20.0,31.0,41,0.00,,,0.00,VWS V14.01,2013-04-10 16:30:00,
2013-04-10 10:33:00,20.0,1.6,30.27,NNW,337,23.0,31.0,44,0.00,,,0.00,VWS V14.01,2013-04-10 16:33:00,
2013-04-10 10:35:00,20.0,2.1,30.27,NNW,337,26.0,31.0,45,0.00,,,0.00,VWS V14.01,2013-04-10 16:35:00,
2013-04-10 10:38:00,20.0,3.0,30.27,NNW,337,24.0,29.0,47,0.00,,,0.00,VWS V14.01,2013-04-10 16:38:00,
2013-04-10 10:40:00,20.0,2.6,30.27,NNW,337,28.0,29.0,46,0.00,,,0.00,VWS V14.01,2013-04-10 16:40:00,
2013-04-10 10:43:00,20.0,3.0,30.28,NNW,337,22.0,30.0,47,0.00,,,0.00,VWS V14.01,2013-04-10 16:43:00,
2013-04-10 10:45:00,20.0,2.6,30.28,NNW,337,19.0,30.0,46,0.00,,,0.00,VWS V14.01,2013-04-10 16:45:00,
2013-04-10 10:48:00,20.0,0.6,30.28,NNW,337,22.0,30.0,42,0.00,,,0.00,VWS V14.01,2013-04-10 16:48:00,
2013-04-10 10:50:00,20.0,0.6,30.28,NNW,337,20.0,30.0,42,0.00,,,0.00,VWS V14.01,2013-04-10 16:50:00,
2013-04-10 10:53:00,20.0,0.1,30.27,NNW,337,26.0,29.0,41,0.00,,,0.00,VWS V14.01,2013-04-10 16:53:00,
2013-04-10 10:55:00,20.0,-1.0,30.27,NNW,337,23.0,29.0,39,0.00,,,0.00,VWS V14.01,2013-04-10 16:55:00,
2013-04-10 10:58:00,20.0,0.1,30.27,NNW,337,23.0,28.0,41,0.00,,,0.00,VWS V14.01,2013-04-10 16:58:00,
2013-04-10 11:00:00,20.0,1.1,30.27,NNW,337,24.0,28.0,43,0.00,,,0.00,VWS V14.01,2013-04-10 17:00:00,
2013-04-10 11:03:00,20.0,-2.7,30.28,NNW,337,22.0,26.0,36,0.00,,,0.00,VWS V14.01,2013-04-10 17:03:00,
2013-04-10 11:05:00,20.0,-0.4,30.28,NNW,337,24.0,26.0,40,0.00,,,0.00,VWS V14.01,2013-04-10 17:05:00,
2013-04-10 11:08:00,20.0,-2.7,30.28,NNW,337,26.0,31.0,36,0.00,,,0.00,VWS V14.01,2013-04-10 17:08:00,
2013-04-10 11:10:00,20.0,-2.7,30.28,NNW,337,25.0,31.0,36,0.00,,,0.00,VWS V14.01,2013-04-10 17:10:00,
2013-04-10 11:13:00,20.0,-1.0,30.27,NNW,337,25.0,28.0,39,0.00,,,0.00,VWS V14.01,2013-04-10 17:13:00,
2013-04-10 11:15:00,20.0,0.1,30.27,NW,315,28.0,31.0,41,0.00,,,0.00,VWS V14.01,2013-04-10 17:15:00,
2013-04-10 11:18:00,20.0,-3.2,30.27,NNW,337,23.0,29.0,35,0.00,,,0.00,VWS V14.01,2013-04-10 17:18:00,
2013-04-10 11:20:00,20.0,-3.2,30.27,NNW,337,23.0,29.0,35,0.00,,,0.00,VWS V14.01,2013-04-10 17:20:00,
2013-04-10 11:23:00,20.0,-3.8,30.27,NNW,337,25.0,31.0,34,0.00,,,0.00,VWS V14.01,2013-04-10 17:23:00,
2013-04-10 11:25:00,20.0,-2.7,30.27,NNW,337,23.0,31.0,36,0.00,,,0.00,VWS V14.01,2013-04-10 17:25:00,
2013-04-10 11:29:00,21.0,-8.5,30.27,North,360,24.0,28.0,26,0.00,,,0.00,VWS V14.01,2013-04-10 17:29:00,
2013-04-10 11:30:00,21.0,-7.7,30.27,NNW,337,23.0,28.0,27,0.00,,,0.00,VWS V14.01,2013-04-10 17:30:00,
2013-04-10 11:34:00,21.0,-12.8,30.25,NNW,337,22.0,26.0,21,0.00,,,0.00,VWS V14.01,2013-04-10 17:34:00,
2013-04-10 11:35:00,21.0,-8.5,30.25,NNW,337,19.0,26.0,26,0.00,,,0.00,VWS V14.01,2013-04-10 17:35:00,
2013-04-10 11:39:00,21.0,-12.8,30.25,NNW,337,23.0,25.0,21,0.00,,,0.00,VWS V14.01,2013-04-10 17:39:00,
2013-04-10 11:40:00,21.0,-14.8,30.25,NNW,337,20.0,25.0,19,0.00,,,0.00,VWS V14.01,2013-04-10 17:40:00,
2013-04-10 11:44:00,22.0,-17.3,30.25,NNW,337,17.0,25.0,16,0.00,,,0.00,VWS V14.01,2013-04-10 17:44:00,
2013-04-10 11:45:00,21.0,-14.8,30.25,NNW,337,20.0,25.0,19,0.00,,,0.00,VWS V14.01,2013-04-10 17:45:00,
2013-04-10 11:49:00,21.0,-7.0,30.25,NNW,337,23.0,28.0,28,0.00,,,0.00,VWS V14.01,2013-04-10 17:49:00,
2013-04-10 11:50:00,21.0,-6.3,30.25,NNW,337,25.0,28.0,29,0.00,,,0.00,VWS V14.01,2013-04-10 17:50:00,
2013-04-10 11:54:00,21.0,-11.9,30.25,North,360,17.0,25.0,22,0.00,,,0.00,VWS V14.01,2013-04-10 17:54:00,
2013-04-10 11:55:00,21.0,-13.8,30.25,NNW,337,22.0,25.0,20,0.00,,,0.00,VWS V14.01,2013-04-10 17:55:00,
2013-04-10 11:59:00,21.0,-14.8,30.25,NNW,337,22.0,26.0,19,0.00,,,0.00,VWS V14.01,2013-04-10 17:59:00,
2013-04-10 12:00:00,21.0,-10.1,30.25,NNW,337,22.0,26.0,24,0.00,,,0.00,VWS V14.01,2013-04-10 18:00:00,
2013-04-10 12:04:00,22.0,-17.3,30.25,North,360,19.0,24.0,16,0.00,,,0.00,VWS V14.01,2013-04-10 18:04:00,
2013-04-10 12:05:00,22.0,-17.3,30.25,North,360,19.0,24.0,16,0.00,,,0.00,VWS V14.01,2013-04-10 18:05:00,
2013-04-10 12:09:00,22.0,-18.6,30.25,North,360,15.0,25.0,15,0.00,,,0.00,VWS V14.01,2013-04-10 18:09:00,
2013-04-10 12:10:00,22.0,-22.8,30.25,North,360,20.0,25.0,12,0.00,,,0.00,VWS V14.01,2013-04-10 18:10:00,
2013-04-10 12:14:00,22.0,-32.8,30.24,NNW,337,20.0,24.0,7,0.00,,,0.00,VWS V14.01,2013-04-10 18:14:00,
2013-04-10 12:15:00,22.0,-30.4,30.24,North,360,19.0,24.0,8,0.00,,,0.00,VWS V14.01,2013-04-10 18:15:00,
2013-04-10 12:19:00,22.0,-24.5,30.24,North,360,21.0,26.0,11,0.00,,,0.00,VWS V14.01,2013-04-10 18:19:00,
2013-04-10 12:20:00,22.0,-24.5,30.24,North,360,23.0,26.0,11,0.00,,,0.00,VWS V14.01,2013-04-10 18:20:00,
2013-04-10 12:24:00,22.0,-22.8,30.24,North,360,21.0,24.0,12,0.00,,,0.00,VWS V14.01,2013-04-10 18:24:00,
2013-04-10 12:25:00,22.0,-22.8,30.24,North,360,23.0,24.0,12,0.00,,,0.00,VWS V14.01,2013-04-10 18:25:00,
2013-04-10 12:29:00,22.0,-26.2,30.24,North,360,19.0,26.0,10,0.00,,,0.00,VWS V14.01,2013-04-10 18:29:00,
2013-04-10 12:30:00,22.0,-28.2,30.24,North,360,20.0,26.0,9,0.00,,,0.00,VWS V14.01,2013-04-10 18:30:00,
2013-04-10 12:34:00,22.0,-24.5,30.24,North,360,21.0,25.0,11,0.00,,,0.00,VWS V14.01,2013-04-10 18:34:00,
2013-04-10 12:35:00,22.0,-28.2,30.24,North,360,22.0,25.0,9,0.00,,,0.00,VWS V14.01,2013-04-10 18:35:00,
2013-04-10 12:39:00,22.0,-28.2,30.24,North,360,21.0,25.0,9,0.00,,,0.00,VWS V14.01,2013-04-10 18:39:00,
2013-04-10 12:40:00,22.0,-28.2,30.24,North,360,21.0,25.0,9,0.00,,,0.00,VWS V14.01,2013-04-10 18:40:00,
2013-04-10 12:44:00,22.0,-26.2,30.23,North,360,20.0,23.0,10,0.00,,,0.00,VWS V14.01,2013-04-10 18:44:00,
2013-04-10 12:45:00,22.0,-26.2,30.23,North,360,17.0,23.0,10,0.00,,,0.00,VWS V14.01,2013-04-10 18:45:00,
2013-04-10 12:49:00,22.0,-28.2,30.23,North,360,19.0,23.0,9,0.00,,,0.00,VWS V14.01,2013-04-10 18:49:00,
2013-04-10 12:50:00,22.0,-24.5,30.23,North,360,21.0,23.0,11,0.00,,,0.00,VWS V14.01,2013-04-10 18:50:00,
2013-04-10 12:54:00,22.0,-24.5,30.24,North,360,19.0,23.0,11,0.00,,,0.00,VWS V14.01,2013-04-10 18:54:00,
2013-04-10 12:55:00,22.0,-24.5,30.24,North,360,17.0,23.0,11,0.00,,,0.00,VWS V14.01,2013-04-10 18:55:00,
2013-04-10 12:59:00,22.0,-28.2,30.24,North,360,17.0,22.0,9,0.00,,,0.00,VWS V14.01,2013-04-10 18:59:00,
2013-04-10 13:00:00,23.0,-27.4,30.24,NNW,337,21.0,22.0,9,0.00,,,0.00,VWS V14.01,2013-04-10 19:00:00,
2013-04-10 13:04:00,23.0,-27.4,30.23,NNW,337,20.0,25.0,9,0.00,,,0.00,VWS V14.01,2013-04-10 19:04:00,
2013-04-10 13:05:00,22.0,-28.2,30.23,North,360,19.0,25.0,9,0.00,,,0.00,VWS V14.01,2013-04-10 19:05:00,
2013-04-10 13:10:00,23.0,-32.0,30.23,NNW,337,21.0,23.0,7,0.00,,,0.00,VWS V14.01,2013-04-10 19:10:00,
2013-04-10 13:15:00,23.0,-32.0,30.23,North,360,17.0,22.0,7,0.00,,,0.00,VWS V14.01,2013-04-10 19:15:00,
2013-04-10 13:20:00,24.0,-52.6,30.23,North,360,17.0,20.0,2,0.00,,,0.00,VWS V14.01,2013-04-10 19:20:00,
2013-04-10 13:22:00,24.0,-52.6,30.21,NNW,337,19.0,21.0,2,0.00,,,0.00,VWS V14.01,2013-04-10 19:22:00,
2013-04-10 13:25:00,23.0,-46.7,30.21,North,360,19.0,22.0,3,0.00,,,0.00,VWS V14.01,2013-04-10 19:25:00,
2013-04-10 13:27:00,23.0,-46.7,30.21,North,360,21.0,22.0,3,0.00,,,0.00,VWS V14.01,2013-04-10 19:27:00,
2013-04-10 13:30:00,23.0,-53.3,30.21,North,360,15.0,22.0,2,0.00,,,0.00,VWS V14.01,2013-04-10 19:30:00,
2013-04-10 13:32:00,24.0,-52.6,30.21,North,360,20.0,21.0,2,22.44,,,0.00,VWS V14.01,2013-04-10 19:32:00,
2013-04-10 13:35:00,23.0,-41.8,30.21,North,360,18.0,21.0,4,0.00,,,0.00,VWS V14.01,2013-04-10 19:35:00,
2013-04-10 13:37:00,23.0,-46.7,30.21,North,360,19.0,20.0,3,0.00,,,0.00,VWS V14.01,2013-04-10 19:37:00,
2013-04-10 13:40:00,23.0,-41.8,30.21,North,360,16.0,22.0,4,0.00,,,0.00,VWS V14.01,2013-04-10 19:40:00,
2013-04-10 13:42:00,24.0,-52.6,30.21,North,360,18.0,20.0,1,0.00,,,0.00,VWS V14.01,2013-04-10 19:42:00,
2013-04-10 13:45:00,24.0,0.0,30.21,North,360,17.0,20.0,0,0.00,,,0.00,VWS V14.01,2013-04-10 19:45:00,
2013-04-10 13:47:00,24.0,0.0,30.21,North,360,16.0,19.0,0,0.00,,,0.00,VWS V14.01,2013-04-10 19:47:00,
2013-04-10 13:50:00,24.0,-52.6,30.21,North,360,18.0,20.0,2,0.00,,,0.00,VWS V14.01,2013-04-10 19:50:00,
2013-04-10 13:52:00,23.0,-41.8,30.21,NNW,337,18.0,22.0,4,0.00,,,0.00,VWS V14.01,2013-04-10 19:52:00,
2013-04-10 13:55:00,23.0,-38.0,30.21,North,360,17.0,22.0,5,0.00,,,0.00,VWS V14.01,2013-04-10 19:55:00,
2013-04-10 13:57:00,23.0,-38.0,30.21,North,360,20.0,22.0,5,0.00,,,0.00,VWS V14.01,2013-04-10 19:57:00,
2013-04-10 14:00:00,23.0,-38.0,30.21,North,360,18.0,22.0,5,0.00,,,0.00,VWS V14.01,2013-04-10 20:00:00,
2013-04-10 14:02:00,24.0,-41.1,30.20,NNW,337,16.0,23.0,4,0.00,,,0.00,VWS V14.01,2013-04-10 20:02:00,
2013-04-10 14:05:00,24.0,-37.2,30.20,North,360,22.0,23.0,5,0.00,,,0.00,VWS V14.01,2013-04-10 20:05:00,
2013-04-10 14:07:00,23.0,-34.8,30.20,North,360,18.0,23.0,6,0.00,,,0.00,VWS V14.01,2013-04-10 20:07:00,
2013-04-10 14:10:00,24.0,-37.2,30.20,North,360,16.0,23.0,5,0.00,,,0.00,VWS V14.01,2013-04-10 20:10:00,
2013-04-10 14:12:00,24.0,-34.0,30.20,NNW,337,16.0,20.0,6,0.00,,,0.00,VWS V14.01,2013-04-10 20:12:00,
2013-04-10 14:15:00,23.0,-27.4,30.20,NNW,337,20.0,23.0,9,0.00,,,0.00,VWS V14.01,2013-04-10 20:15:00,
2013-04-10 14:17:00,23.0,-25.5,30.20,North,360,17.0,25.0,10,0.00,,,0.00,VWS V14.01,2013-04-10 20:17:00,
2013-04-10 14:20:00,23.0,-23.7,30.20,North,360,22.0,25.0,11,0.00,,,0.00,VWS V14.01,2013-04-10 20:20:00,
2013-04-10 14:22:00,23.0,-20.5,30.20,NNW,337,19.0,24.0,13,0.00,,,0.00,VWS V14.01,2013-04-10 20:22:00,
2013-04-10 14:25:00,24.0,-24.7,30.20,North,360,15.0,24.0,10,0.00,,,0.00,VWS V14.01,2013-04-10 20:25:00,
2013-04-10 14:27:00,23.0,-16.5,30.20,NNW,337,25.0,25.0,16,0.00,,,0.00,VWS V14.01,2013-04-10 20:27:00,
2013-04-10 14:30:00,24.0,-22.9,30.20,NNW,337,17.0,25.0,11,0.00,,,0.00,VWS V14.01,2013-04-10 20:30:00,
2013-04-10 14:33:00,24.0,-19.7,30.19,North,360,17.0,25.0,13,0.00,,,0.00,VWS V14.01,2013-04-10 20:33:00,
2013-04-10 14:35:00,23.0,-16.5,30.19,NNW,337,20.0,25.0,16,0.00,,,0.00,VWS V14.01,2013-04-10 20:35:00,
2013-04-10 14:38:00,24.0,-21.2,30.19,North,360,19.0,22.0,12,0.00,,,0.00,VWS V14.01,2013-04-10 20:38:00,
2013-04-10 14:40:00,24.0,-15.7,30.19,NNW,337,19.0,23.0,16,0.00,,,0.00,VWS V14.01,2013-04-10 20:40:00,
2013-04-10 14:43:00,24.0,-13.4,30.18,North,360,17.0,23.0,18,0.00,,,0.00,VWS V14.01,2013-04-10 20:43:00,
2013-04-10 14:45:00,23.0,-13.1,30.18,NNW,337,17.0,23.0,19,0.00,,,0.00,VWS V14.01,2013-04-10 20:45:00,
2013-04-10 14:48:00,23.0,-12.1,30.18,NNW,337,19.0,22.0,20,0.00,,,0.00,VWS V14.01,2013-04-10 20:48:00,
2013-04-10 14:50:00,23.0,-9.3,30.18,NNW,337,18.0,23.0,23,0.00,,,0.00,VWS V14.01,2013-04-10 20:50:00,
2013-04-10 14:53:00,23.0,-3.8,30.19,NNW,337,20.0,23.0,30,0.00,,,0.00,VWS V14.01,2013-04-10 20:53:00,
2013-04-10 14:55:00,23.0,-6.8,30.19,NNW,337,17.0,25.0,26,0.00,,,0.00,VWS V14.01,2013-04-10 20:55:00,
2013-04-10 14:58:00,23.0,-6.8,30.19,NNW,337,20.0,23.0,26,0.00,,,0.00,VWS V14.01,2013-04-10 20:58:00,
2013-04-10 15:00:00,23.0,-4.5,30.19,NNW,337,22.0,23.0,29,0.00,,,0.00,VWS V14.01,2013-04-10 21:00:00,
2013-04-10 15:03:00,23.0,-6.8,30.18,NNW,337,21.0,25.0,26,22.44,,,0.00,VWS V14.01,2013-04-10 21:03:00,
2013-04-10 15:05:00,23.0,-5.2,30.18,NNW,337,20.0,25.0,28,22.44,,,0.00,VWS V14.01,2013-04-10 21:05:00,
2013-04-10 15:08:00,23.0,0.0,30.18,NNW,337,22.0,25.0,36,0.00,,,0.00,VWS V14.01,2013-04-10 21:08:00,
2013-04-10 15:10:00,23.0,0.0,30.18,NNW,337,20.0,25.0,36,0.00,,,0.00,VWS V14.01,2013-04-10 21:10:00,
2013-04-10 15:13:00,23.0,-3.1,30.17,North,360,18.0,24.0,31,0.00,,,0.00,VWS V14.01,2013-04-10 21:13:00,
2013-04-10 15:15:00,23.0,-3.1,30.17,NNW,337,22.0,24.0,31,0.00,,,0.00,VWS V14.01,2013-04-10 21:15:00,
2013-04-10 15:18:00,23.0,-0.6,30.17,NNW,337,20.0,24.0,35,0.00,,,0.00,VWS V14.01,2013-04-10 21:18:00,
2013-04-10 15:20:00,23.0,-1.2,30.17,North,360,18.0,24.0,34,0.00,,,0.00,VWS V14.01,2013-04-10 21:20:00,
2013-04-10 15:23:00,23.0,3.3,30.17,NNW,337,21.0,24.0,42,0.00,,,0.00,VWS V14.01,2013-04-10 21:23:00,
2013-04-10 15:25:00,23.0,3.3,30.17,NNW,337,20.0,24.0,42,0.00,,,0.00,VWS V14.01,2013-04-10 21:25:00,
2013-04-10 15:28:00,23.0,3.8,30.17,NNW,337,18.0,23.0,43,0.00,,,0.00,VWS V14.01,2013-04-10 21:28:00,
2013-04-10 15:30:00,24.0,3.7,30.17,NNW,337,15.0,23.0,41,0.00,,,0.00,VWS V14.01,2013-04-10 21:30:00,
2013-04-10 15:33:00,24.0,5.3,30.17,NNW,337,20.0,23.0,44,0.00,,,0.00,VWS V14.01,2013-04-10 21:33:00,
2013-04-10 15:35:00,23.0,5.3,30.17,North,360,17.0,23.0,46,0.00,,,0.00,VWS V14.01,2013-04-10 21:35:00,
2013-04-10 15:38:00,23.0,7.1,30.17,North,360,20.0,24.0,50,0.00,,,0.00,VWS V14.01,2013-04-10 21:38:00,
2013-04-10 15:40:00,23.0,7.1,30.17,NNW,337,18.0,24.0,50,0.00,,,0.00,VWS V14.01,2013-04-10 21:40:00,
2013-04-10 15:43:00,23.0,8.0,30.17,NNW,337,20.0,25.0,52,0.00,,,0.00,VWS V14.01,2013-04-10 21:43:00,
2013-04-10 15:45:00,23.0,7.6,30.17,NNW,337,20.0,25.0,51,0.00,,,0.00,VWS V14.01,2013-04-10 21:45:00,
2013-04-10 15:48:00,23.0,9.2,30.17,NNW,337,19.0,25.0,55,0.00,,,0.00,VWS V14.01,2013-04-10 21:48:00,
2013-04-10 15:50:00,23.0,14.0,30.17,NNW,337,25.0,26.0,68,0.00,,,0.00,VWS V14.01,2013-04-10 21:50:00,
2013-04-10 15:53:00,23.0,16.9,30.16,NNW,337,20.0,25.0,77,0.00,,,0.00,VWS V14.01,2013-04-10 21:53:00,
2013-04-10 15:55:00,23.0,16.9,30.16,NNW,337,20.0,25.0,77,0.00,,,0.00,VWS V14.01,2013-04-10 21:55:00,
2013-04-10 15:58:00,24.0,16.3,30.16,NNW,337,19.0,25.0,72,0.00,,,0.00,VWS V14.01,2013-04-10 21:58:00,
2013-04-10 16:00:00,24.0,18.4,30.16,NNW,337,23.0,25.0,79,0.00,,,0.00,VWS V14.01,2013-04-10 22:00:00,
2013-04-10 16:03:00,24.0,19.9,30.16,North,360,19.0,24.0,84,0.00,,,0.00,VWS V14.01,2013-04-10 22:03:00,
2013-04-10 16:05:00,24.0,20.1,30.16,North,360,18.0,24.0,85,0.00,,,0.00,VWS V14.01,2013-04-10 22:05:00,
2013-04-10 16:08:00,24.0,21.8,30.16,NNW,337,21.0,23.0,91,0.00,,,0.00,VWS V14.01,2013-04-10 22:08:00,
2013-04-10 16:10:00,23.0,21.0,30.16,NNW,337,22.0,25.0,92,0.00,,,0.00,VWS V14.01,2013-04-10 22:10:00,
2013-04-10 16:13:00,24.0,22.0,30.16,NNW,337,20.0,23.0,92,0.00,,,0.00,VWS V14.01,2013-04-10 22:13:00,
2013-04-10 16:15:00,24.0,21.8,30.16,NNW,337,18.0,23.0,91,0.00,,,0.00,VWS V14.01,2013-04-10 22:15:00,
2013-04-10 16:18:00,23.0,21.0,30.16,NNW,337,22.0,23.0,92,0.00,,,0.00,VWS V14.01,2013-04-10 22:18:00,
2013-04-10 16:20:00,23.0,20.5,30.16,NNW,337,19.0,23.0,90,0.00,,,0.00,VWS V14.01,2013-04-10 22:20:00,
2013-04-10 16:23:00,23.0,21.5,30.15,North,360,15.0,21.0,94,0.00,,,0.00,VWS V14.01,2013-04-10 22:23:00,
2013-04-10 16:25:00,23.0,21.8,30.15,NNW,337,16.0,21.0,95,0.00,,,0.00,VWS V14.01,2013-04-10 22:25:00,
2013-04-10 16:28:00,24.0,22.8,30.15,North,360,16.0,22.0,95,0.00,,,0.00,VWS V14.01,2013-04-10 22:28:00,
2013-04-10 16:30:00,24.0,23.0,30.15,North,360,17.0,22.0,96,0.00,,,0.00,VWS V14.01,2013-04-10 22:30:00,
2013-04-10 16:33:00,24.0,23.0,30.15,NNW,337,17.0,20.0,96,0.00,,,0.00,VWS V14.01,2013-04-10 22:33:00,
2013-04-10 16:35:00,24.0,23.3,30.15,NNW,337,21.0,23.0,97,0.00,,,0.00,VWS V14.01,2013-04-10 22:35:00,
2013-04-10 16:38:00,24.0,23.0,30.15,NNW,337,16.0,21.0,96,0.00,,,0.00,VWS V14.01,2013-04-10 22:38:00,
2013-04-10 16:40:00,24.0,23.0,30.15,NNW,337,16.0,21.0,96,0.00,,,0.00,VWS V14.01,2013-04-10 22:40:00,
2013-04-10 16:43:00,24.0,23.5,30.15,North,360,15.0,19.0,98,0.00,,,0.00,VWS V14.01,2013-04-10 22:43:00,
2013-04-10 16:45:00,24.0,23.3,30.15,North,360,15.0,20.0,97,0.00,,,0.00,VWS V14.01,2013-04-10 22:45:00,
2013-04-10 16:48:00,23.0,22.3,30.15,NNW,337,14.0,19.0,97,0.00,,,0.00,VWS V14.01,2013-04-10 22:48:00,
2013-04-10 16:50:00,23.0,22.5,30.15,NNW,337,15.0,19.0,98,0.00,,,0.00,VWS V14.01,2013-04-10 22:50:00,
2013-04-10 16:53:00,23.0,22.8,30.15,North,360,17.0,18.0,99,0.00,,,0.00,VWS V14.01,2013-04-10 22:53:00,
2013-04-10 16:55:00,23.0,23.0,30.15,NNW,337,19.0,19.0,100,0.00,,,0.00,VWS V14.01,2013-04-10 22:55:00,
2013-04-10 16:58:00,23.0,22.8,30.15,NNW,337,15.0,19.0,99,0.00,,,0.00,VWS V14.01,2013-04-10 22:58:00,
2013-04-10 17:00:00,23.0,22.8,30.15,NNW,337,15.0,19.0,99,0.00,,,0.00,VWS V14.01,2013-04-10 23:00:00,
2013-04-10 17:03:00,24.0,23.5,30.15,North,360,15.0,17.0,98,0.00,,,0.00,VWS V14.01,2013-04-10 23:03:00,
2013-04-10 17:05:00,24.0,23.5,30.15,North,360,15.0,18.0,98,0.00,,,0.00,VWS V14.01,2013-04-10 23:05:00,
2013-04-10 17:08:00,24.0,23.3,30.15,North,360,14.0,17.0,97,0.00,,,0.00,VWS V14.01,2013-04-10 23:08:00,
2013-04-10 17:10:00,24.0,23.0,30.15,North,360,16.0,17.0,96,0.00,,,0.00,VWS V14.01,2013-04-10 23:10:00,
2013-04-10 17:13:00,24.0,23.0,30.14,North,360,15.0,17.0,96,0.00,,,0.00,VWS V14.01,2013-04-10 23:13:00,
2013-04-10 17:15:00,24.0,23.0,30.14,North,360,15.0,17.0,96,0.00,,,0.00,VWS V14.01,2013-04-10 23:15:00,
2013-04-10 17:18:00,24.0,22.8,30.14,North,360,17.0,18.0,95,0.00,,,0.00,VWS V14.01,2013-04-10 23:18:00,
2013-04-10 17:20:00,24.0,23.0,30.14,North,360,15.0,18.0,96,0.00,,,0.00,VWS V14.01,2013-04-10 23:20:00,
2013-04-10 17:23:00,24.0,23.0,30.13,NNW,337,16.0,19.0,96,0.00,,,0.00,VWS V14.01,2013-04-10 23:23:00,
2013-04-10 17:25:00,24.0,22.5,30.13,North,360,17.0,19.0,94,0.00,,,0.00,VWS V14.01,2013-04-10 23:25:00,
2013-04-10 17:28:00,24.0,23.5,30.13,North,360,16.0,19.0,98,0.00,,,0.00,VWS V14.01,2013-04-10 23:28:00,
2013-04-10 17:30:00,24.0,23.0,30.13,NNW,337,15.0,19.0,96,0.00,,,0.00,VWS V14.01,2013-04-10 23:30:00,
2013-04-10 17:33:00,24.0,23.0,30.13,NNW,337,15.0,18.0,96,0.00,,,0.00,VWS V14.01,2013-04-10 23:33:00,
2013-04-10 17:35:00,24.0,23.3,30.13,North,360,14.0,18.0,97,0.00,,,0.00,VWS V14.01,2013-04-10 23:35:00,
2013-04-10 17:38:00,24.0,23.3,30.13,North,360,14.0,16.0,97,0.00,,,0.00,VWS V14.01,2013-04-10 23:38:00,
2013-04-10 17:40:00,24.0,23.0,30.13,North,360,15.0,16.0,96,0.00,,,0.00,VWS V14.01,2013-04-10 23:40:00,
2013-04-10 17:44:00,24.0,23.0,30.13,NNW,337,13.0,16.0,96,0.00,,,0.00,VWS V14.01,2013-04-10 23:44:00,
2013-04-10 17:45:00,24.0,22.8,30.13,NNW,337,14.0,17.0,95,0.00,,,0.00,VWS V14.01,2013-04-10 23:45:00,
2013-04-10 17:49:00,23.0,22.5,30.13,NNW,337,15.0,17.0,98,0.00,,,0.00,VWS V14.01,2013-04-10 23:49:00,
2013-04-10 17:50:00,23.0,22.5,30.13,NNW,337,15.0,17.0,98,0.00,,,0.00,VWS V14.01,2013-04-10 23:50:00,
2013-04-10 17:54:00,23.0,22.5,30.13,NNW,337,16.0,18.0,98,0.00,,,0.00,VWS V14.01,2013-04-10 23:54:00,
2013-04-10 17:55:00,23.0,22.3,30.13,NNW,337,15.0,18.0,97,0.00,,,0.00,VWS V14.01,2013-04-10 23:55:00,
2013-04-10 17:59:00,23.0,22.3,30.13,NNW,337,15.0,17.0,97,0.00,,,0.00,VWS V14.01,2013-04-10 23:59:00,
2013-04-10 18:00:00,23.0,22.5,30.13,NNW,337,12.0,17.0,98,0.00,,,0.00,VWS V14.01,2013-04-11 00:00:00,
2013-04-10 18:04:00,23.0,22.5,30.13,NNW,337,14.0,16.0,98,0.00,,,0.00,VWS V14.01,2013-04-11 00:04:00,
2013-04-10 18:05:00,23.0,22.3,30.13,NNW,337,15.0,16.0,97,0.00,,,0.00,VWS V14.01,2013-04-11 00:05:00,
2013-04-10 18:09:00,23.0,22.3,30.13,NNW,337,13.0,16.0,97,0.00,,,0.00,VWS V14.01,2013-04-11 00:09:00,
2013-04-10 18:10:00,23.0,22.8,30.13,NNW,337,13.0,16.0,99,0.00,,,0.00,VWS V14.01,2013-04-11 00:10:00,
2013-04-10 18:14:00,23.0,22.0,30.13,NNW,337,13.0,17.0,96,0.00,,,0.00,VWS V14.01,2013-04-11 00:14:00,
2013-04-10 18:15:00,23.0,22.3,30.13,NNW,337,16.0,17.0,97,0.00,,,0.00,VWS V14.01,2013-04-11 00:15:00,
2013-04-10 18:19:00,23.0,21.5,30.13,NNW,337,15.0,17.0,94,0.00,,,0.00,VWS V14.01,2013-04-11 00:19:00,
2013-04-10 18:20:00,23.0,21.3,30.13,NNW,337,15.0,17.0,93,0.00,,,0.00,VWS V14.01,2013-04-11 00:20:00,
2013-04-10 18:24:00,23.0,21.5,30.13,NNW,337,16.0,19.0,94,0.00,,,0.00,VWS V14.01,2013-04-11 00:24:00,
2013-04-10 18:25:00,23.0,21.8,30.13,NNW,337,15.0,19.0,95,0.00,,,0.00,VWS V14.01,2013-04-11 00:25:00,
2013-04-10 18:29:00,23.0,21.8,30.13,NNW,337,14.0,17.0,95,0.00,,,0.00,VWS V14.01,2013-04-11 00:29:00,
2013-04-10 18:30:00,23.0,21.8,30.13,NNW,337,14.0,17.0,95,0.00,,,0.00,VWS V14.01,2013-04-11 00:30:00,
2013-04-10 18:34:00,23.0,22.0,30.12,NNW,337,12.0,15.0,96,0.00,,,0.00,VWS V14.01,2013-04-11 00:34:00,
2013-04-10 18:35:00,23.0,21.8,30.12,NNW,337,14.0,15.0,95,0.00,,,0.00,VWS V14.01,2013-04-11 00:35:00,
2013-04-10 18:39:00,22.0,20.8,30.12,NNW,337,13.0,15.0,95,0.00,,,0.00,VWS V14.01,2013-04-11 00:39:00,
2013-04-10 18:40:00,22.0,20.8,30.12,NW,315,11.0,15.0,95,0.00,,,0.00,VWS V14.01,2013-04-11 00:40:00,
2013-04-10 18:45:00,22.0,21.0,30.13,NW,315,12.0,15.0,96,0.00,,,0.00,VWS V14.01,2013-04-11 00:45:00,
2013-04-10 19:00:00,22.0,21.5,30.13,NNW,337,10.0,12.0,98,0.00,,,0.00,VWS V14.01,2013-04-11 01:00:00,
2013-04-10 19:15:00,21.0,21.0,30.13,NNW,337,10.0,10.0,100,0.00,,,0.00,VWS V14.01,2013-04-11 01:15:00,
2013-04-10 19:30:00,21.0,21.0,30.13,NNW,337,9.0,10.0,100,0.00,,,0.00,VWS V14.01,2013-04-11 01:30:00,
2013-04-10 19:45:00,21.0,21.0,30.13,NNW,337,10.0,10.0,100,0.00,,,0.00,VWS V14.01,2013-04-11 01:45:00,
2013-04-10 20:00:00,21.0,21.0,30.12,NNW,337,9.0,10.0,100,0.00,,,0.00,VWS V14.01,2013-04-11 02:00:00,
2013-04-10 20:15:00,21.0,20.5,30.13,NW,315,8.0,9.0,98,0.00,,,0.00,VWS V14.01,2013-04-11 02:15:00,
2013-04-10 20:30:00,21.0,20.0,30.12,NW,315,7.0,8.0,96,0.00,,,0.00,VWS V14.01,2013-04-11 02:30:00,
2013-04-10 20:45:00,21.0,20.0,30.12,NW,315,8.0,8.0,96,0.00,,,0.00,VWS V14.01,2013-04-11 02:45:00,
2013-04-10 21:00:00,21.0,20.8,30.12,NW,315,7.0,8.0,99,0.00,,,0.00,VWS V14.01,2013-04-11 03:00:00,
2013-04-10 21:15:00,21.0,20.3,30.12,NW,315,6.0,7.0,97,0.00,,,0.00,VWS V14.01,2013-04-11 03:15:00,
2013-04-10 21:30:00,21.0,20.0,30.12,NW,315,7.0,7.0,96,0.00,,,0.00,VWS V14.01,2013-04-11 03:30:00,
2013-04-10 21:45:00,20.0,19.5,30.11,NW,315,7.0,7.0,98,0.00,,,0.00,VWS V14.01,2013-04-11 03:45:00,
2013-04-10 22:00:00,18.0,18.0,30.12,WNW,292,4.0,7.0,100,0.00,,,0.00,VWS V14.01,2013-04-11 04:00:00,
2013-04-10 22:15:00,18.0,18.0,30.13,West,270,3.0,4.0,100,0.00,,,0.00,VWS V14.01,2013-04-11 04:15:00,
2013-04-10 22:30:00,19.0,18.8,30.13,NW,315,5.0,5.0,99,0.00,,,0.00,VWS V14.01,2013-04-11 04:30:00,
2013-04-10 22:45:00,18.0,18.0,30.11,WNW,292,3.0,5.0,100,0.00,,,0.00,VWS V14.01,2013-04-11 04:45:00,
2013-04-10 23:00:00,19.0,19.0,30.11,NW,315,2.0,3.0,100,0.00,,,0.00,VWS V14.01,2013-04-11 05:00:00,
2013-04-10 23:15:00,19.0,19.0,30.09,West,270,1.0,2.0,100,0.00,,,0.00,VWS V14.01,2013-04-11 05:15:00,
2013-04-10 23:30:00,19.0,19.0,30.08,WNW,292,4.0,4.0,100,0.00,,,0.00,VWS V14.01,2013-04-11 05:30:00,
2013-04-10 23:45:00,19.0,18.8,30.07,West,270,2.0,4.0,99,0.00,,,0.00,VWS V14.01,2013-04-11 05:45:00,